[[[{"header":{"parameterUnit":"kt","parameterCategory":2,"dx":1,"dy":1,"la1":30.253999710083008,"la2":30.299108505249023,"lo1":-89.0895004272461,"lo2":-89.04439544677734,"nx":28,"ny":28,"refTime":"2022-10-30T21:00:00:Z","depth":0,"parameterNumber":1,"parameterNumberName":"U-component_of_WINDS"},"data":[2.7573,2.766,2.7684,2.7794,2.7834,2.7912,2.7948,2.7996,2.8041,2.8136,2.8195,2.8228,2.8281,2.8357,2.8421,2.8434,2.8458,2.8471,2.8483,2.8407,2.8397,2.8389,2.8369,2.8477,2.8477,2.8559,2.8559,2.856,2.751,2.755,2.7617,2.7696,2.7752,2.7754,2.7817,2.7864,2.7934,2.799,2.8051,2.8137,2.8208,2.8258,2.833,2.837,2.8374,2.8387,2.8384,2.8391,2.8311,2.829,2.8382,2.8382,2.8382,2.8382,2.8382,2.8382,2.7402,2.7454,2.7516,2.7588,2.7635,2.7688,2.7742,2.7781,2.7846,2.7925,2.7942,2.8022,2.8082,2.8182,2.8221,2.8283,2.8272,2.8294,2.8299,2.8303,2.8304,2.8177,2.8297,2.8297,2.8297,2.8296,2.8296,0,2.7329,2.7345,2.7411,2.7484,2.7538,2.7597,2.7654,2.7688,2.7732,2.7784,2.786,2.7908,2.8003,2.8076,2.815,2.8187,2.8193,2.8198,2.8212,2.8203,2.8185,2.8193,2.8057,2.8194,2.8193,2.8192,2.8192,2.8192,2.7219,2.7278,2.7356,2.7399,2.7437,2.7506,2.7552,2.7586,2.7633,2.7709,2.7754,2.7829,2.7891,2.801,2.8055,2.8125,2.8129,2.8177,2.8139,2.8128,2.8126,2.8121,2.8126,2.8183,2.8184,2.8185,2.8186,0,2.7154,2.7194,2.7294,2.7366,2.7386,2.7446,2.7507,2.7561,2.7594,2.7672,2.7693,2.7745,2.7819,2.7857,2.7951,2.7968,2.8063,2.8067,2.8042,2.8043,2.8089,2.8083,2.8236,2.8256,2.8148,2.8149,2.815,0,2.7074,2.7151,2.7206,2.7262,2.7348,2.7382,2.7466,2.7503,2.7557,2.7619,2.7633,2.7691,2.7732,2.7795,2.7821,2.7906,2.7925,2.7942,2.7947,2.7939,2.7937,2.7963,2.7956,2.7962,2.7961,2.796,2.7959,0,2.6966,2.7088,2.7179,2.7213,2.7299,2.7341,2.7378,2.744,2.7485,2.755,2.7579,2.7652,2.7692,2.7748,2.778,2.7752,2.7886,2.7855,2.7904,2.7903,2.793,2.7927,2.8055,2.7958,2.7958,2.7958,2.7958,0,2.6908,2.6974,2.7102,2.7172,2.7203,2.7264,2.7338,2.74,2.7464,2.7484,2.7536,2.7549,2.763,2.7595,2.7705,2.7659,2.7697,2.7722,2.7726,2.7733,2.7693,2.7757,2.7877,2.789,2.7742,2.774,2.7739,0,2.6771,2.6912,2.6942,2.7063,2.7133,2.7144,2.7212,2.7269,2.7303,2.7366,2.7403,2.7476,2.7458,2.7486,2.7536,2.7576,2.7636,2.757,2.7657,2.766,2.7637,2.7749,2.7756,2.7847,2.7717,2.7719,2.7721,0,2.6671,2.6776,2.6795,2.6835,2.6917,2.6977,2.7056,2.7136,2.7176,2.724,2.7305,2.741,2.74,2.7447,2.7467,2.7517,2.7597,2.75,2.7502,2.7513,2.771,2.7715,2.7731,2.7598,2.7601,2.7603,2.7703,0,2.6568,2.6645,2.6701,2.679,2.6843,2.6922,2.6965,2.7014,2.7027,2.7061,2.716,2.7218,2.73,2.7329,2.7343,2.7446,2.7434,2.7424,2.7391,2.7466,2.7499,2.7513,2.7338,2.7337,2.7336,2.7336,0,0,2.6425,2.6537,2.6569,2.6647,2.6693,2.6704,2.6785,2.6831,2.6925,2.6956,2.6938,2.7094,2.7143,2.7258,2.7285,2.7319,2.734,2.7314,2.7431,2.7441,2.7451,2.7486,2.75,2.7335,2.7335,2.7334,2.7334,0,2.6396,2.6447,2.6528,2.6577,2.6652,2.6684,2.6703,2.6779,2.6804,2.6903,2.691,2.6975,2.71,2.7149,2.7191,2.7301,2.7302,2.7324,2.7367,2.7424,2.7435,2.7445,2.7481,2.7494,2.7333,2.7333,2.7333,0,2.6302,2.6359,2.6403,2.651,2.6559,2.6632,2.6609,2.6688,2.6742,2.6751,2.6848,2.6887,2.6957,2.7063,2.7111,2.7097,2.7264,2.7221,2.7225,2.7231,2.7287,2.7301,2.7313,2.7155,2.7154,2.7153,0,0,2.6271,2.6344,2.6416,2.6507,2.6537,2.6587,2.6631,2.6649,2.6713,2.6739,2.6788,2.6849,2.6922,2.6969,2.704,2.7151,2.7167,2.7197,2.7205,2.7212,2.7221,2.7279,2.7292,2.715,2.715,2.715,0,0,2.6256,2.6343,2.6345,2.6457,2.6518,2.6594,2.6648,2.6652,2.6721,2.6716,2.6751,2.6769,2.6868,2.6906,2.6861,2.7029,2.6997,2.7008,2.7,2.7012,2.702,2.7008,2.6844,0,0,0,0,0,2.6248,2.6332,2.6333,2.6358,2.6495,2.6593,2.6611,2.6641,2.6617,2.6658,2.67,2.6699,2.6888,2.6848,2.6873,2.6923,2.7111,2.7118,2.7125,2.7141,2.7152,2.7162,0,0,0,0,0,0,2.6258,2.6289,2.6331,2.641,2.6441,2.659,2.6555,2.6566,2.6613,2.6611,2.6691,2.6702,2.6729,2.6838,2.686,2.6906,2.6837,2.7114,2.712,2.7125,2.7145,2.7154,2.7162,0,0,0,0,0,2.6267,2.6291,2.6503,2.6409,2.6436,2.6497,2.6553,2.6561,2.6598,2.6664,2.6674,2.6617,2.673,2.675,2.6851,2.6896,2.6823,2.683,2.7118,2.7123,2.7127,2.7149,0,0,0,0,0,0,2.6273,2.63,2.6509,2.6518,2.638,2.6489,2.6507,2.6557,2.6648,2.6659,2.659,2.6588,2.6731,2.6747,2.6762,2.689,2.6811,2.6819,2.6824,2.7121,2.7125,2.7128,0,0,0,0,0,0,2.6287,2.6308,2.6514,2.6476,2.6481,2.6482,2.6498,2.6588,2.6649,2.6569,2.657,2.6588,2.6708,2.6745,2.6757,2.6897,2.6802,2.6809,2.6814,2.6818,2.7124,2.7127,0,0,0,0,0,0,2.6296,2.6314,2.6473,2.6477,2.6482,2.6588,2.6562,2.6701,2.6616,2.6565,2.6609,2.6606,2.6706,2.6719,2.6753,2.6889,2.6895,2.6802,2.6807,2.6811,2.6813,0,0,0,0,0,0,0,2.6304,2.6176,2.6454,2.6479,2.6483,2.6604,2.6607,2.6609,2.6615,2.6613,2.661,2.6608,2.6758,2.6766,2.6775,2.6881,0,0,2.6801,2.6805,0,0,0,0,0,0,0,0,2.6169,2.6174,2.6454,2.6456,2.6458,2.6605,2.6607,2.6609,2.6615,2.6613,2.6611,2.6609,2.676,2.6767,2.6774,0,0,0,0,0,0,0,0,0,0,0,0,0,0,0,2.6454,2.6456,0,2.6605,2.6607,2.6608,2.6615,2.6613,2.6611,2.6609,2.6762,2.6768,2.6773,0,0,0,0,0,0,0,0,0,0,0,0,0,0,0,0,0,0,0,0,0,0,0,0,0,0,0,0,0,0,0,0,0,0,0,0,0,0,0,0,0,0,0,0,0,0,0,0,0,0,0,0,0,0,0,0,0,0,0,0,0,0,0,0,0,0,0,0,0]}],[{"header":{"parameterUnit":"kt","parameterCategory":2,"dx":1,"dy":1,"la1":30.253999710083008,"la2":30.299108505249023,"lo1":-89.0895004272461,"lo2":-89.04439544677734,"nx":28,"ny":28,"refTime":"2022-10-30T21:00:00:Z","depth":0,"parameterNumber":2,"parameterNumberName":"V-component_of_WINDS"},"data":[1.03,1.029,1.0264,1.0239,1.0211,1.0189,1.0172,1.0147,1.012,1.0088,1.0064,1.0035,0.9996,0.9958,0.9929,0.9916,0.9906,0.992,0.9902,0.9864,0.9857,0.9851,0.9852,0.9918,0.9918,0.9945,0.9945,0.9945,1.0269,1.0242,1.0222,1.0186,1.0167,1.0137,1.0104,1.009,1.0071,1.0038,1.0014,0.9983,0.9954,0.9909,0.9876,0.9867,0.985,0.986,0.986,0.9854,0.9813,0.9815,0.9873,0.9873,0.9873,0.9873,0.9873,0.9873,1.0205,1.0201,1.0165,1.0143,1.0117,1.0092,1.0082,1.0048,1.0027,0.9993,0.9965,0.9941,0.9902,0.985,0.9825,0.9804,0.9789,0.979,0.9791,0.9792,0.9796,0.9758,0.9797,0.9797,0.9797,0.9796,0.9796,0,1.0151,1.013,1.0111,1.0083,1.0065,1.0041,1.0014,1.0007,0.9953,0.9938,0.9913,0.9894,0.9855,0.9827,0.9791,0.9765,0.9732,0.9726,0.9726,0.974,0.9755,0.9745,0.9678,0.9725,0.9725,0.9724,0.9724,0.9723,1.0085,1.0084,1.0034,1.0023,1.0003,0.9986,0.9971,0.9924,0.9909,0.9867,0.9864,0.9837,0.9813,0.9776,0.9735,0.9705,0.9689,0.9709,0.9684,0.9696,0.9687,0.9688,0.9686,0.9716,0.9717,0.9717,0.9718,0,1.0049,1.0009,0.9999,0.995,0.9937,0.9938,0.9894,0.9887,0.9856,0.9841,0.9834,0.9785,0.9761,0.9716,0.968,0.9657,0.9651,0.9636,0.9663,0.9658,0.9671,0.967,0.9723,0.9727,0.9659,0.966,0.966,0,0.9977,0.9977,0.9917,0.9913,0.991,0.9865,0.9862,0.9836,0.9804,0.9792,0.9749,0.9738,0.9684,0.9666,0.9633,0.962,0.9614,0.9595,0.9587,0.9599,0.9602,0.9591,0.9588,0.9569,0.9568,0.9568,0.9568,0,0.9926,0.9895,0.9889,0.9875,0.9824,0.9822,0.98,0.9765,0.975,0.9724,0.9714,0.9686,0.9671,0.9649,0.9608,0.9592,0.9592,0.9562,0.9573,0.9574,0.9576,0.9577,0.9634,0.9568,0.9568,0.9568,0.9568,0,0.9862,0.984,0.9838,0.9793,0.9787,0.9783,0.9754,0.9741,0.9707,0.9687,0.9666,0.9633,0.962,0.9593,0.9573,0.9565,0.9551,0.9533,0.9533,0.953,0.9501,0.9539,0.9599,0.9603,0.9525,0.9524,0.9524,0,0.9814,0.9802,0.9764,0.9763,0.9752,0.9705,0.9699,0.9672,0.9644,0.9629,0.9598,0.9582,0.9553,0.9542,0.9537,0.9505,0.9516,0.9502,0.9477,0.9477,0.9488,0.9542,0.9562,0.959,0.9519,0.9519,0.952,0,0.9773,0.9713,0.9716,0.9699,0.9658,0.9649,0.9642,0.9617,0.9609,0.9584,0.9576,0.9552,0.9529,0.9512,0.9483,0.9481,0.9507,0.9456,0.9455,0.9466,0.9514,0.9532,0.9537,0.9487,0.9487,0.9488,0.9516,0,0.9683,0.9673,0.968,0.9646,0.9632,0.963,0.9588,0.9579,0.9552,0.9525,0.9514,0.9482,0.9456,0.9451,0.9426,0.9437,0.9428,0.9405,0.9376,0.9413,0.942,0.9424,0.9367,0.9366,0.9365,0.9365,0,0,0.9647,0.9633,0.9593,0.9588,0.9574,0.9527,0.9529,0.951,0.9474,0.9464,0.9448,0.9411,0.9387,0.9377,0.9385,0.9376,0.9373,0.9363,0.9396,0.94,0.9403,0.9412,0.9416,0.9363,0.9363,0.9362,0.9362,0,0.9606,0.9585,0.9588,0.9567,0.9535,0.9507,0.9507,0.9467,0.945,0.9441,0.9402,0.9391,0.9365,0.9343,0.9328,0.9363,0.9334,0.9358,0.939,0.9388,0.9393,0.9397,0.9408,0.9412,0.936,0.936,0.936,0,0.9557,0.9529,0.9527,0.9496,0.9475,0.9466,0.9425,0.9418,0.941,0.936,0.9352,0.9329,0.9297,0.9296,0.9293,0.9279,0.9301,0.9288,0.9292,0.9291,0.9287,0.9293,0.9298,0.9229,0.9228,0.9228,0,0,0.9528,0.952,0.9476,0.9485,0.9474,0.9433,0.9424,0.9398,0.9372,0.9362,0.9332,0.9307,0.929,0.9281,0.9264,0.9268,0.9257,0.9273,0.928,0.9285,0.9287,0.9284,0.929,0.9227,0.9227,0.9227,0,0,0.9514,0.9464,0.9443,0.9448,0.9425,0.9382,0.9388,0.9361,0.9342,0.9338,0.9293,0.9285,0.9282,0.9262,0.9252,0.9253,0.9226,0.9227,0.9267,0.9274,0.928,0.9285,0.9207,0,0,0,0,0,0.9452,0.947,0.9452,0.9446,0.9409,0.9392,0.9387,0.9351,0.9332,0.9337,0.9308,0.9279,0.9247,0.9237,0.9232,0.9244,0.9213,0.9216,0.9218,0.927,0.9278,0.9285,0,0,0,0,0,0,0.945,0.9444,0.9451,0.941,0.9401,0.9391,0.9351,0.9341,0.933,0.9325,0.9285,0.9278,0.9246,0.9237,0.9233,0.9245,0.9209,0.9214,0.9216,0.9218,0.9273,0.9279,0.9285,0,0,0,0,0,0.9448,0.9443,0.9393,0.9409,0.9402,0.9358,0.935,0.9342,0.9332,0.9288,0.928,0.9306,0.9247,0.9241,0.9235,0.9248,0.9211,0.921,0.9216,0.9217,0.9219,0.9276,0,0,0,0,0,0,0.9446,0.9435,0.939,0.9386,0.9401,0.9357,0.935,0.9342,0.9296,0.9288,0.9307,0.9304,0.9249,0.9244,0.9239,0.9251,0.9213,0.9212,0.9211,0.9217,0.9218,0.9219,0,0,0,0,0,0,0.9437,0.9432,0.9388,0.9379,0.9374,0.9357,0.935,0.934,0.9296,0.9317,0.9312,0.9306,0.9255,0.9245,0.9242,0.9227,0.9215,0.9213,0.9212,0.9212,0.9218,0.9219,0,0,0,0,0,0,0.9434,0.943,0.938,0.9376,0.9372,0.9326,0.9347,0.9311,0.929,0.932,0.9287,0.9285,0.9257,0.9253,0.9244,0.9231,0.9228,0.9215,0.9214,0.9213,0.9213,0,0,0,0,0,0,0,0.9432,0.9471,0.9413,0.9374,0.937,0.9351,0.935,0.9349,0.9289,0.9288,0.9287,0.9286,0.9222,0.9221,0.9219,0.9234,0,0,0.9215,0.9214,0,0,0,0,0,0,0,0,0.9472,0.9471,0.9413,0.9412,0.9411,0.9351,0.935,0.9349,0.9289,0.9288,0.9287,0.9286,0.9222,0.9221,0.922,0,0,0,0,0,0,0,0,0,0,0,0,0,0,0,0.9412,0.9412,0,0.9351,0.935,0.935,0.9289,0.9288,0.9287,0.9287,0.9222,0.9221,0.922,0,0,0,0,0,0,0,0,0,0,0,0,0,0,0,0,0,0,0,0,0,0,0,0,0,0,0,0,0,0,0,0,0,0,0,0,0,0,0,0,0,0,0,0,0,0,0,0,0,0,0,0,0,0,0,0,0,0,0,0,0,0,0,0,0,0,0,0,0]}]]]